Charleston, SC

3:36 PM EST on December 04, 2016 (GMT -0500)
Charleston Executive

Weather History for KJZI - February, 2014

Change the Weather History Date:

Wednesday, February 5, 2014

  Actual Average (KCHS) Record (KCHS)
Temperature  
Mean Temperature 58 °F 50 °F  
Max Temperature 69 °F 61 °F 81 °F (2012)
Min Temperature 48 °F 39 °F 16 °F (1996)
Degree Days  
Heating Degree Days 6 15  
Month to date heating degree days 77  
Since 1 July heating degree days 1336  
Cooling Degree Days 0 0  
Month to date cooling degree days 0  
Year to date cooling degree days 2  
Growing Degree Days 8 (Base 50)    
Moisture  
Dew Point 55 °F    
Average Humidity 89    
Maximum Humidity 100    
Minimum Humidity 54    
Precipitation  
Precipitation 0.00 in 0.11 in 1.15 in (1945)
Month to date precipitation 0.56  
Year to date precipitation 4.27  
Sea Level Pressure  
Sea Level Pressure 29.97 in    
Wind  
Wind Speed 5 mph (WSW)    
Max Wind Speed 16 mph    
Max Gust Speed 26 mph    
Visibility 5 miles    
Events Fog , Rain    
T = Trace of Precipitation, MM = Missing Value Source: NWS Daily Summary

Daily Weather History Graph

Daily Weather History Graph

Search for Another Location

Airport or City:

Trip Planner

Search our weather history database for the weather conditions in past years. The results will help you decide how hot, cold, wet, or windy it might be!

Date:

Astronomy

Feb. 05, 2014 Rise Set
Actual Time 7:11 AM EST 5:56 PM EST
Civil Twilight 6:46 AM EST 6:22 PM EST
Nautical Twilight 6:16 AM EST 6:51 PM EST
Astronomical Twilight 5:48 AM EST 7:20 PM EST
Moon 10:48 AM EST (2/5) No Moon Set
Length of Visible Light 11h 35m
Length of Day
10h 44m
Waxing Crescent, 39% of the Moon is Illuminated
Feb 5
Waxing Crescent
Feb 6
First Quarter
Feb 14
Full
Feb 22
Last Quarter
Mar 1
New

Hourly Weather History & Observations

Time (EST) Temp. Dew Point Humidity Pressure Visibility Wind Dir Wind Speed Gust Speed Precip Events Conditions
12:15 AM 48.2 °F 48.2 °F 100% 30.08 in 0.2 mi Calm Calm - 0.00 in Fog Fog
12:35 AM 48.2 °F 48.2 °F 100% 30.07 in 0.2 mi Calm Calm - 0.00 in Fog Fog
12:55 AM 48.2 °F 48.2 °F 100% 30.06 in 0.2 mi Calm Calm - 0.00 in Fog Fog
1:15 AM 48.2 °F 48.2 °F 100% 30.05 in 0.2 mi Calm Calm - 0.00 in Fog Fog
1:35 AM 50.0 °F 50.0 °F 100% 30.05 in 0.2 mi Calm Calm - 0.00 in Fog Fog
1:55 AM 50.0 °F 50.0 °F 100% 30.05 in 0.2 mi Calm Calm - 0.00 in Fog Fog
2:15 AM 50.0 °F 50.0 °F 100% 30.04 in 0.2 mi Calm Calm - 0.00 in Fog Fog
2:35 AM 50.0 °F 50.0 °F 100% 30.04 in 0.2 mi Calm Calm - 0.00 in Fog Fog
2:55 AM 50.0 °F 50.0 °F 100% 30.03 in 0.2 mi Calm Calm - 0.00 in Rain Light Rain
3:15 AM 50.0 °F 50.0 °F 100% 30.02 in 0.5 mi Calm Calm - 0.00 in Rain Light Rain
3:35 AM 50.0 °F 50.0 °F 100% 30.01 in 1.2 mi Calm Calm - 0.00 in   Overcast
3:55 AM 51.8 °F 51.8 °F 100% 30.02 in 2.5 mi Calm Calm - 0.00 in Rain Heavy Rain
4:15 AM 51.8 °F 51.8 °F 100% 30.01 in 1.0 mi Calm Calm - 0.00 in   Overcast
4:35 AM 51.8 °F 51.8 °F 100% 30.00 in 1.5 mi Calm Calm - 0.00 in   Overcast
4:55 AM 51.8 °F 51.8 °F 100% 29.99 in 1.5 mi Calm Calm - 0.00 in   Overcast
5:15 AM 51.8 °F 51.8 °F 100% 29.99 in 1.0 mi Calm Calm - 0.00 in   Overcast
5:35 AM 51.8 °F 51.8 °F 100% 29.99 in 0.5 mi Calm Calm - 0.00 in Fog Fog
5:55 AM 51.8 °F 51.8 °F 100% 29.99 in 0.2 mi Calm Calm - 0.00 in Fog Fog
6:15 AM 51.8 °F 51.8 °F 100% 29.99 in 0.2 mi Calm Calm - 0.00 in Fog Fog
6:35 AM 51.8 °F 51.8 °F 100% 29.98 in 0.2 mi Calm Calm - 0.00 in Fog Fog
6:55 AM 53.6 °F 53.6 °F 100% 29.97 in 0.2 mi Calm Calm - 0.00 in Fog Fog
7:15 AM 57.2 °F 57.2 °F 100% 29.97 in 0.2 mi SSW 9.2 mph - 0.00 in Fog Fog
7:35 AM 60.8 °F 60.8 °F 100% 29.97 in 0.2 mi SSW 12.7 mph 18.4 mph 0.00 in Fog Fog
7:55 AM 60.8 °F 60.8 °F 100% 29.98 in 0.2 mi SW 11.5 mph 16.1 mph 0.00 in Fog Fog
8:15 AM 60.8 °F 60.8 °F 100% 29.98 in 0.2 mi SW 13.8 mph 19.6 mph 0.00 in Fog Fog
8:35 AM 60.8 °F 60.8 °F 100% 29.99 in 0.8 mi SW 12.7 mph 17.3 mph 0.00 in   Overcast
8:55 AM 62.6 °F 62.6 °F 100% 29.98 in 5.0 mi SSW 12.7 mph 18.4 mph 0.00 in   Overcast
9:15 AM 62.6 °F 62.6 °F 100% 29.98 in 5.0 mi SW 13.8 mph 23.0 mph 0.00 in   Overcast
9:35 AM 62.6 °F 62.6 °F 100% 29.99 in 5.0 mi SW 13.8 mph 23.0 mph 0.00 in   Overcast
9:55 AM 62.6 °F 62.6 °F 100% 29.99 in 3.0 mi SW 10.4 mph 19.6 mph 0.00 in   Overcast
10:15 AM 62.6 °F 62.6 °F 100% 29.98 in 2.5 mi SW 15.0 mph 21.9 mph 0.00 in   Overcast
10:35 AM 62.6 °F 62.6 °F 100% 29.98 in 2.5 mi SW 16.1 mph 19.6 mph 0.00 in   Overcast
10:55 AM 64.4 °F 64.4 °F 100% 29.98 in 3.0 mi SSW 13.8 mph 20.7 mph 0.00 in   Overcast
11:35 AM 64.4 °F 64.4 °F 100% 29.97 in 3.0 mi SW 12.7 mph 26.5 mph 0.00 in   Overcast
11:55 AM 64.4 °F 64.4 °F 100% 29.95 in 0.8 mi SW 12.7 mph 23.0 mph 0.00 in   Overcast
12:15 PM 62.6 °F 62.6 °F 100% 29.94 in 1.0 mi SW 16.1 mph 21.9 mph 0.00 in   Overcast
12:35 PM 64.4 °F 64.4 °F 100% 29.94 in 4.0 mi SW 15.0 mph 24.2 mph 0.00 in   Overcast
12:55 PM 64.4 °F 64.4 °F 100% 29.92 in 4.0 mi SW 12.7 mph 19.6 mph 0.00 in   Overcast
1:15 PM 64.4 °F 64.4 °F 100% 29.91 in 3.0 mi SW 6.9 mph 18.4 mph 0.00 in   Overcast
1:35 PM 64.4 °F 64.4 °F 100% 29.90 in 2.5 mi SW 10.4 mph 18.4 mph 0.00 in   Overcast
1:55 PM 64.4 °F 64.4 °F 100% 29.90 in 1.0 mi SW 13.8 mph 21.9 mph 0.00 in   Overcast
2:15 PM 64.4 °F 64.4 °F 100% 29.89 in 3.0 mi SW 12.7 mph 19.6 mph 0.00 in   Overcast
2:35 PM 64.4 °F 64.4 °F 100% 29.89 in 9.0 mi SW 15.0 mph 25.3 mph 0.00 in   Overcast
2:55 PM 66.2 °F 64.4 °F 94% 29.90 in 10.0 mi SSW 12.7 mph 16.1 mph 0.00 in   Mostly Cloudy
3:15 PM 66.2 °F 62.6 °F 88% 29.89 in 10.0 mi SSW 12.7 mph 18.4 mph 0.00 in   Mostly Cloudy
3:35 PM 66.2 °F 62.6 °F 88% 29.89 in 10.0 mi SW 11.5 mph 19.6 mph 0.00 in   Partly Cloudy
3:55 PM 69.8 °F 62.6 °F 78% 29.89 in 10.0 mi SW 9.2 mph - 0.00 in   Clear
4:15 PM 68.0 °F 62.6 °F 83% 29.88 in 10.0 mi SW 11.5 mph 18.4 mph 0.00 in   Clear
4:35 PM 68.0 °F 62.6 °F 83% 29.89 in 10.0 mi SSW 6.9 mph - 0.00 in   Clear
4:55 PM 68.0 °F 62.6 °F 83% 29.89 in 10.0 mi SSW 9.2 mph - 0.00 in   Clear
5:15 PM 66.2 °F 60.8 °F 83% 29.89 in 10.0 mi SSW 8.1 mph - 0.00 in   Clear
5:35 PM 64.4 °F 60.8 °F 88% 29.90 in 10.0 mi SSW 6.9 mph - 0.00 in   Clear
5:55 PM 64.4 °F 60.8 °F 88% 29.91 in 10.0 mi SW 3.5 mph - 0.00 in   Clear
6:15 PM 64.4 °F 60.8 °F 88% 29.92 in 10.0 mi Calm Calm - 0.00 in   Clear
6:35 PM 62.6 °F 60.8 °F 94% 29.92 in 10.0 mi Calm Calm - 0.00 in   Clear
6:55 PM 62.6 °F 60.8 °F 94% 29.94 in 10.0 mi Calm Calm - 0.00 in   Clear
7:15 PM 64.4 °F 57.2 °F 77% 29.95 in 10.0 mi WNW 10.4 mph - 0.00 in   Clear
7:35 PM 64.4 °F 53.6 °F 68% 29.96 in 10.0 mi NW 9.2 mph - 0.00 in   Clear
7:55 PM 64.4 °F 48.2 °F 56% 29.96 in 10.0 mi NW 10.4 mph - 0.00 in   Clear
8:15 PM 62.6 °F 48.2 °F 59% 29.98 in 10.0 mi WNW 6.9 mph - 0.00 in   Clear
8:35 PM 60.8 °F 46.4 °F 59% 29.98 in 10.0 mi Calm Calm - 0.00 in   Clear
8:55 PM 59.0 °F 46.4 °F 63% 29.98 in 10.0 mi WNW 5.8 mph - 0.00 in   Clear
9:15 PM 57.2 °F 46.4 °F 67% 29.99 in 10.0 mi WNW 4.6 mph - 0.00 in   Clear
9:35 PM 57.2 °F 46.4 °F 67% 30.00 in 10.0 mi WNW 11.5 mph - 0.00 in   Clear
9:55 PM 59.0 °F 44.6 °F 59% 30.01 in 10.0 mi WNW 12.7 mph - 0.00 in   Clear
10:15 PM 57.2 °F 44.6 °F 63% 30.01 in 10.0 mi NW 10.4 mph - 0.00 in   Clear
10:35 PM 57.2 °F 42.8 °F 59% 30.02 in 10.0 mi NW 12.7 mph - 0.00 in   Clear
10:55 PM 57.2 °F 42.8 °F 59% 30.03 in 10.0 mi WNW 10.4 mph 19.6 mph 0.00 in   Clear
11:15 PM 55.4 °F 41.0 °F 58% 30.04 in 10.0 mi NW 10.4 mph - 0.00 in   Clear
11:35 PM 55.4 °F 39.2 °F 54% 30.05 in 10.0 mi NW 13.8 mph - 0.00 in   Clear
11:55 PM 53.6 °F 37.4 °F 54% 30.05 in 10.0 mi NW 12.7 mph 20.7 mph 0.00 in   Clear